Location: Newark
(39.0622°N, 106.5590°E)
Time: 12:32:07
(UTC+00:00)

SRMSAT - Visible Passes

Search period start: 18 February 2020 00:00
Search period end: 28 February 2020 00:00
Orbit: 848 x 865 km, 20.0° (Epoch: 17 February)

Date Brightness Start Highest point End Pass type
(mag) Time Alt. Az. Time Alt. Az. Time Alt. Az.
18 Feb ? 12:56:20 10° SSW 12:57:40 11° S 12:57:40 11° S visible
19 Feb ? 12:43:26 10° SSW 12:44:46 11° S 12:45:35 10° S visible
20 Feb ? 12:30:44 10° SSW 12:31:39 10° S 12:32:34 10° S visible
